Date String (YYYY-MM-DD hh:mm:ss) UTC,Instrument flags,Ambient pressure (hPa),Sample flow (lpm),Bypass flow (lpm),Sample temperature (°C),Ambient temperature (°C),ASC tube jacket temperature (°C),LED temperature (°C),Box temperature (°C),Sample RH (%),Span deviation,Mass concentration (μg/m³),Mass concentration (μg/m³),Mass concentration (μg/m³)
DateTimeUTC,F1_M11,P_M11,Q1_M11,Q2_M11,T1_M11,T2_M11,T3_M11,T4_M11,T5_M11,U1_M11,ZSPAN_M11,X0_M11,X2_M11,X1_M11
2022-09-12 06:00:00,,0830.6,5.01,0.00,29.4,27.9,00.0,38.3,31.1,13.8,0001.4,0009.68,0006.99,0006.76
2022-09-12 06:01:00,,0830.6,5.00,0.00,29.4,27.9,00.0,38.2,31.2,13.9,0001.4,0009.57,0006.99,0006.76
2022-09-12 06:02:00,,0830.6,4.98,0.00,29.4,27.8,00.0,38.2,31.2,14.4,0001.5,0009.83,0006.98,0006.76
2022-09-12 06:03:00,,0830.6,5.00,0.00,29.4,27.8,00.0,38.2,31.1,14.0,0001.4,0009.84,0006.98,0006.75
2022-09-12 06:04:00,,0830.6,5.00,0.00,29.4,27.8,00.0,38.2,31.1,13.6,0001.5,0009.83,0006.98,0006.76
2022-09-12 06:05:00,,0830.6,5.00,0.00,29.4,27.8,00.0,38.2,31.1,13.1,0001.2,0009.78,0006.96,0006.74
2022-09-12 06:06:00,,0830.6,4.99,0.00,29.4,27.7,00.0,38.2,31.1,13.1,0001.1,0009.73,0006.95,0006.75
2022-09-12 06:07:00,,0830.6,5.00,0.00,29.4,27.7,00.0,38.2,31.1,13.1,0001.4,0009.74,0006.92,0006.73
2022-09-12 06:08:00,,0830.5,5.00,0.00,29.4,27.8,00.0,38.2,31.1,13.0,0001.2,0009.54,0006.91,0006.72
2022-09-12 06:09:00,,0830.5,5.00,0.00,29.3,27.7,00.0,38.2,31.0,12.8,0001.3,0009.53,0006.88,0006.69
2022-09-12 06:10:00,,0830.5,5.00,0.00,29.3,27.7,00.0,38.2,31.0,12.6,0001.4,0009.55,0006.86,0006.67
2022-09-12 06:11:00,,0830.6,5.00,0.00,29.3,27.6,00.0,38.2,31.0,12.8,0001.5,0009.54,0006.83,0006.64
2022-09-12 06:12:00,,0830.5,4.99,0.00,29.3,27.7,00.0,38.2,31.0,12.8,0001.7,0009.52,0006.80,0006.63
2022-09-12 06:13:00,,0830.5,5.00,0.00,29.3,27.7,00.0,38.1,31.0,13.1,0002.0,0009.25,0006.79,0006.62
2022-09-12 06:14:00,,0830.5,5.00,0.00,29.3,27.6,00.0,38.1,30.9,13.0,0002.0,0009.31,0006.79,0006.60
2022-09-12 06:15:00,,0830.5,5.00,0.00,29.2,27.6,00.0,38.1,30.9,13.0,0001.7,0009.32,0006.78,0006.59
2022-09-12 06:16:00,,0830.5,5.00,0.00,29.2,27.6,00.0,38.1,30.9,13.1,0001.8,0009.40,0006.79,0006.57
2022-09-12 06:17:00,,0830.5,5.00,0.00,29.2,27.5,00.0,38.1,30.9,12.8,0001.8,0009.47,0006.78,0006.54
2022-09-12 06:18:00,,0830.5,5.01,0.00,29.2,27.5,00.0,38.1,30.9,12.7,0001.5,0009.49,0006.73,0006.50
2022-09-12 06:19:00,,0830.6,4.99,0.00,29.2,27.6,00.0,38.1,30.9,12.5,0001.8,0009.49,0006.72,0006.47
2022-09-12 06:20:00,,0830.5,5.00,0.00,29.1,27.6,00.0,38.1,30.8,12.6,0001.5,0009.49,0006.71,0006.45
2022-09-12 06:21:00,,0830.5,5.00,0.00,29.1,27.6,00.0,38.1,30.8,12.5,0001.0,0009.48,0006.68,0006.42
2022-09-12 06:22:00,,0830.4,5.01,0.00,29.1,27.5,00.0,38.0,30.8,12.6,0001.0,0009.42,0006.66,0006.39
2022-09-12 06:23:00,,0830.4,5.00,0.00,29.1,27.6,00.0,38.0,30.8,12.7,0000.5,0009.43,0006.63,0006.36
2022-09-12 06:24:00,,0830.3,5.00,0.00,29.1,27.6,00.0,38.0,30.9,12.5,0000.6,0009.51,0006.59,0006.32
2022-09-12 06:25:00,,0830.4,4.99,0.00,29.1,27.7,00.0,38.0,30.9,12.4,0000.2,0009.47,0006.52,0006.27
2022-09-12 06:26:00,,0830.4,5.00,0.00,29.1,27.6,00.0,38.0,30.9,12.3,0000.6,0010.28,0006.46,0006.22
2022-09-12 06:27:00,,0830.4,5.01,0.00,29.1,27.5,00.0,38.0,30.8,12.2,0000.5,0010.29,0006.44,0006.19
2022-09-12 06:28:00,,0830.4,5.01,0.00,29.1,27.6,00.0,38.0,30.8,12.4,0000.6,0010.22,0006.42,0006.16
2022-09-12 06:29:00,,0830.4,4.99,0.00,29.1,27.6,00.0,38.0,30.8,12.0,0000.6,0010.07,0006.41,0006.13
2022-09-12 06:30:00,,0830.4,5.00,0.00,29.1,27.6,00.0,38.0,30.8,11.7,0000.4,0010.01,0006.36,0006.09
2022-09-12 06:31:00,,0830.5,5.01,0.00,29.1,27.6,00.0,38.0,30.8,11.8,0000.7,0010.00,0006.32,0006.06
2022-09-12 06:32:00,,0830.4,5.00,0.00,29.1,27.6,00.0,38.0,30.8,11.8,0000.9,0010.02,0006.30,0006.04
2022-09-12 06:33:00,,0830.4,5.00,0.00,29.1,27.6,00.0,38.0,30.8,11.9,0001.0,0010.02,0006.29,0006.03
2022-09-12 06:34:00,,0830.4,4.98,0.00,29.1,27.6,00.0,38.0,30.8,12.0,0001.4,0010.06,0006.28,0006.00
2022-09-12 06:35:00,,0830.5,5.01,0.00,29.1,27.6,00.0,38.0,30.8,11.9,0001.1,0009.88,0006.28,0005.99
2022-09-12 06:36:00,,0830.5,5.01,0.00,29.1,27.6,00.0,38.0,30.9,11.9,0001.2,0009.90,0006.27,0005.98
2022-09-12 06:37:00,,0830.4,5.00,0.00,29.1,27.5,00.0,37.9,30.8,11.5,0001.2,0009.32,0006.29,0005.97
2022-09-12 06:38:00,,0830.4,4.99,0.00,29.1,27.5,00.0,37.9,30.8,11.6,0001.2,0009.56,0006.25,0005.97
2022-09-12 06:39:00,,0830.5,5.00,0.00,29.1,27.5,00.0,37.9,30.8,11.8,0001.5,0009.55,0006.24,0005.96
2022-09-12 06:40:00,,0830.4,5.01,0.00,29.1,27.5,00.0,37.9,30.8,11.5,0002.1,0009.46,0006.22,0005.96
2022-09-12 06:41:00,,0830.4,5.00,0.00,29.1,27.5,00.0,37.9,30.8,12.0,0002.2,0009.45,0006.22,0005.96
2022-09-12 06:42:00,,0830.4,4.98,0.00,29.1,27.5,00.0,37.9,30.8,11.8,0002.0,0009.51,0006.26,0005.97
2022-09-12 06:43:00,,0830.4,5.01,0.00,29.1,27.6,00.0,37.9,30.8,11.5,0002.1,0009.45,0006.26,0005.97
2022-09-12 06:44:00,,0830.4,5.01,0.00,29.1,27.6,00.0,37.9,30.8,11.7,0002.1,0009.48,0006.28,0005.98
2022-09-12 06:45:00,,0830.4,5.01,0.00,29.1,27.5,00.0,37.9,30.8,11.7,0002.2,0009.51,0006.29,0005.99
2022-09-12 06:46:00,,0830.4,4.98,0.00,29.1,27.5,00.0,37.9,30.8,11.6,0002.3,0009.46,0006.27,0005.99
2022-09-12 06:47:00,,0830.4,5.00,0.00,29.1,27.5,00.0,37.9,30.8,11.8,0002.3,0009.67,0006.26,0005.98
2022-09-12 06:48:00,,0830.4,5.00,0.00,29.1,27.5,00.0,37.9,30.8,11.8,0002.5,0009.87,0006.24,0005.98
2022-09-12 06:49:00,,0830.3,5.00,0.00,29.1,27.5,00.0,37.9,30.8,11.8,0002.4,0009.92,0006.27,0005.99
2022-09-12 06:50:00,,0830.3,4.99,0.00,29.0,27.5,00.0,37.9,30.8,11.9,0002.3,0009.87,0006.26,0005.99
2022-09-12 06:51:00,,0830.3,5.01,0.00,29.0,27.5,00.0,37.9,30.8,11.5,0002.1,0009.94,0006.28,0006.00
2022-09-12 06:52:00,,0830.3,4.99,0.00,29.1,27.6,00.0,37.9,30.8,11.7,0002.0,0009.97,0006.30,0006.00
2022-09-12 06:53:00,,0830.3,5.01,0.00,29.0,27.5,00.0,37.9,30.8,11.7,0001.7,0009.89,0006.26,0005.99
2022-09-12 06:54:00,,0830.3,5.00,0.00,29.1,27.6,00.0,37.9,30.8,11.7,0001.7,0009.82,0006.24,0005.98
2022-09-12 06:55:00,,0830.2,5.00,0.00,29.1,27.6,00.0,37.9,30.8,11.8,0001.7,0009.75,0006.20,0005.96
2022-09-12 06:56:00,,0830.3,5.01,0.00,29.1,27.7,00.0,37.9,30.9,12.0,0001.7,0009.68,0006.18,0005.95
2022-09-12 06:57:00,,0830.2,4.98,0.00,29.1,27.7,00.0,37.9,30.9,12.4,0001.5,0009.62,0006.16,0005.94
2022-09-12 06:58:00,,0830.2,5.00,0.00,29.1,27.7,00.0,37.9,30.9,12.3,0001.5,0009.43,0006.16,0005.95
2022-09-12 06:59:00,,0830.2,5.01,0.00,29.1,27.7,00.0,37.9,30.9,12.1,0001.5,0009.27,0006.15,0005.95
